sat.trackr.live / text

‹ back to catalog

STARLINK-1309

NORAD 45414 · 2020-019BG

PAYLOAD ACTIVE UNKNOWN

§ Identity

Operator
Country
US
Launch date
2020-03-18
Launch site
AFETR
Launch vehicle
Mass (kg)
RCS (m²)

Purposes: comms

External: N2YO · Heavens-Above · Gunter

§ Orbital elements

Epoch: 2026-09-10T00:00:02.000160Z

Period
90.71 min
Inclination
53.0518°
Eccentricity
0.0006227
Mean motion
15.87504983 rev/d
Perigee alt
305.1 km
Apogee alt
313.4 km
Semi-major
6,687.4 km
B*
7.2166e-4
RAAN
291.5933°
Arg perigee
16.2525°
Mean anomaly
195.6245°
Rev number
603

§ Raw data

STARLINK-13091 45414U 20019BG  26253.00002315  .00199405  00000+0  72166-3 0  99912 45414  53.0518 291.5933 0006227  16.2525 195.6245 15.87504983  6033

JSON: /api/v1/satellites/45414 · /tle

For live sub-satellite position, see the globe view (requires WebGL).

§ Visibility from observer

Set your observer location to see the next 7 days of passes ≥ 10°. The values pass through the URL so the page stays shareable.

No JS? Fill the form by hand. The geolocation button needs JavaScript.